Regional Weather Roundup
Issued by NWS Sterling, VA

Home | Current Version | Previous Version | Graphics & Text | Print | Product List | Glossary On
Versions: 1 2 3 4 5 6 7 8 9 10 11 12 13 14 15 16 17 18 19 20 21 22 23 24 25 26 27 28 29 30 31 32 33 34 35 36 37 38 39 40 41 42 43 44 45 46 47 48 49 50
000
ASUS41 KLWX 271110
RWRLWX

REGIONAL WEATHER ROUNDUP
NATIONAL WEATHER SERVICE BALTIMORE MD/WASHINGTON DC
600 AM EST TUE JAN 27 2015

Note: "FAIR" indicates few or no clouds below 12,000 feet
with no significant weather and/or obstructions to visibility.
 TC=TEMPERATURE CELSIUS

 * =Non NWS site. Station does not report precipitation (e.g. rain,
    snow, etc.), thunder, or fog.

DCZ001-MDZ009-015-VAZ040>042-051-053>054-271200-
WASHINGTON METRO

CITY           SKY/WX    TMP DP  RH WIND       PRES   REMARKS
WASHINGTON NAT FLURRIES  31  22  69 N15       29.77R WCI  20
DULLES         FLURRIES  28  21  75 NW15G24   29.76R WCI  16
ANDREWS AFB    MIX PCPN  28  26  92 NW9       29.74R WCI  19
FT BELVOIR     MIX PCPN  30  22  73 NW13G21   29.76S WCI  20
QUANTICO       LGT SNOW  30  23  75 N14G26    29.78R WCI  19
COLLEGE PARK*  CLOUDY    30  28  93 N7        29.76R
LEESBURG*      CLOUDY    30  27  86 N14G21    29.78S WCI  20
MANASSAS*      CLOUDY    28  27  93 N14       29.77S WCI  17
GAITHERSBURG*  CLOUDY    27  21  80 N7        29.78R

$$

MDZ006>007-011-014-271200-
BALTIMORE METRO

CITY           SKY/WX    TMP DP  RH WIND       PRES   REMARKS
BWI AIRPORT    FLURRIES  28  22  78 NW6       29.75R
MD SCIENCE CTR   N/A     28  22  78 MISG      29.76R
MARTIN STATE   FLURRIES  30  25  80 NW9       29.77R WCI  22
ANNAPOLIS      FLURRIES  30  24  78 NW12      29.75R WCI  20
FORT MEADE*    CLOUDY    28  27  93 NE6       29.78R

$$

MDZ012-015-019>023-271200-
MARYLAND EASTERN SHORE

CITY           SKY/WX    TMP DP  RH WIND       PRES   REMARKS
OCEAN CITY     CLOUDY    29  23  78 N15G23    29.66R WCI  18
SALISBURY      CLOUDY    30  23  75 N13G22    29.68R WCI  20
BAY BRIDGE AP*   N/A     30  23  74 N14G21    29.75R WCI  20
CAMBRIDGE*     CLOUDY    32  25  74 N12G17    29.71S WCI  23
EASTON*        CLOUDY    30  25  80 N12G23    29.75S WCI  21

$$

MDZ017>025-271200-
SOUTHERN MARYLAND

CITY           SKY/WX    TMP DP  RH WIND       PRES   REMARKS
PATUXENT RIVER FLURRIES  29  23  78 N18       29.73R WCI  16
ST INIGOES     CLOUDY    30  22  72 N9        29.72R WCI  22
LEONARDTOWN*   CLOUDY    30  23  74 NW7       29.75R

$$

MDZ003>005-271200-
NORTH CENTRAL MARYLAND

CITY           SKY/WX    TMP DP  RH WIND       PRES   REMARKS
FREDERICK*     NOT AVBL
HAGERSTOWN APT FLURRIES  26  18  71 NW15      29.78R WCI  14
WESTMINSTER*   LGT SNOW  25  23  93 N5        29.73S

$$

MDZ501>502-271200-
WESTERN MARYLAND

CITY           SKY/WX    TMP DP  RH WIND       PRES   REMARKS
OAKLAND*       CLOUDY    14 N/A N/A NW3       29.69S FOG
CUMBERLAND*    MOCLDY    27  19  74 CALM      29.86R

$$

VAZ025>031-271200-
SHENANDOAH VALLEY

CITY           SKY/WX    TMP DP  RH WIND       PRES   REMARKS
WINCHESTER*    LGT SNOW  28  23  80 NW6       29.78R
FRONT ROYAL*   CLOUDY    28  25  86 CALM      29.77R
LURAY*         LGT SNOW  28  28 100 CALM      29.76S
NEW MARKET*    CLOUDY    26  24  92 CALM      29.75S
STAUNTON*      CLOUDY    28  24  86 NE3       29.76S
WAYNESBORO*    CLOUDY    26  24  93 N5        29.72S

$$

WVZ021-048>050-054>055-271200-
EASTERN WEST VIRGINIA PANHANDLE

CITY           SKY/WX    TMP DP  RH WIND       PRES   REMARKS
MARTINSBURG    LGT SNOW  28  20  71 NW10      29.80R WCI  19
PETERSBURG*    CLOUDY    21  20  95 CALM      29.80S

$$

VAZ036>039-050-271200-
CENTRAL FOOTHILLS

CITY           SKY/WX    TMP DP  RH WIND       PRES   REMARKS
CHARLOTTESVILL CLOUDY    32  22  66 NW7       29.73R
CULPEPER*      FLURRIES  30  25  80 N12G17    29.77R WCI  21
ORANGE*        LGT SNOW  32  28  86 N3        29.76R
GORDONSVILLE*  CLOUDY    29  25  86 CALM      29.75R FOG
WARRENTON*     CLOUDY    31  27  84 N12G24    29.75S WCI  22

$$

VAZ055>057-271200-
NORTH AND CENTRAL PIEDMONT

CITY           SKY/WX    TMP DP  RH WIND       PRES   REMARKS
FREDERICKSBRG* CLOUDY    31  25  78 N9        29.75S WCI  23
STAFFORD*      CLOUDY    29  26  88 CALM      29.80R

$$

NCZ024-NYZ072-PAZ021-071-VAZ022-071-271200-
OTHER REGIONAL OBSERVATIONS

CITY           SKY/WX    TMP DP  RH WIND       PRES   REMARKS
NEW YORK CITY  CLOUDY    21  13  71 N8G17     29.67F HAZE    WCI  11
PHILADELPHIA   LGT SNOW  26  21  81 N14       29.73R WCI  14
PITTSBURGH     LGT SNOW  19  15  84 N12       29.86R FOG     WCI   7
ROANOKE        CLEAR     24  10  55 NW8       29.79R WCI  15
RICHMOND       LGT SNOW  30  25  81 N17G25    29.74R FOG     WCI  18
RALEIGH        CLOUDY    34  27  75 VRB6      29.76R

$$

ANZ530>537-271200-
MARINE OBSERVATIONS

STATION/POSITION TIME  TEMP    WIND        PRES
                       AIR SEA DIR/SP/G
                 (UTC) (F)     (DEG/KT/KT) (MB)
THOMAS PT LIGHT  1100   30 36  340/ 14/ 16 1008.2R
BALT KEY BRIDGE  1100   29     330/ 10/ 12 1007.4R
COVE POINT       1100   28     360/ 20/ 28 1006.1R
LEWISETTA        1100   29 38  350/ 10/ 13 1006.1R
SOLOMONS ISLAND  1100      38                N/A
PINEY POINT      1100          360/ 15/ 18   N/A

$$




USA.gov is the U.S. government's official web portal to all federal, state and local government web resources and services.